SHENZHOU-11 MODULE (41868 NORAD) Tracking and Keplerian Element Data

This shows tracking and keplerian element data for the satellite.

Feedback or suggestion? Click here.




ElementValue
Catalog41868
NameSHENZHOU-11 MODULE
Epoch Orbit10577
Epoch Day266.55705988
Epoch Year2018
RAAN75.0514
Inclination42.7934
Eccentricity0.000337
Argument of Perigee315.8988
Mean Anonmoly93.3373
Mean Motion15.73883744
Decay Rate8.901E-05
L11 41868U 16061G 18266.55705988 .00008901 00000-0 64012-4 0 9996
L22 41868 42.7934 75.0514 0003370 315.8988 93.3373 15.73883744105773

Live tracking and technical data element details for SHENZHOU-11 MODULE (NORAD 41868). SHENZHOU-11 MODULE can be tracked NOW for your location showing map with azimuth and elevation plus other details from your city location.

Track the satellite on the map from your city or location and see movement details for azimuth, elevation, latitude, longitude, range, height, and movement on the map or in text.







IsCatalogInMostPopularTable: catalog: 41868, numindb: 116
Update: records affected: 1



GetName: 41868 SHENZHOU-11 MODULE

Hit Count: updated at: Tue, 25 Sep 2018 14:55:33 GMT